[[{"header":{"parameterUnit":"m.s-1","parameterCategory":2,"la1":30.2991,"la2":30.254,"lo1":-89.0895,"lo2":-89.0444,"dy":0.0017,"dx":0.0017,"nx":28,"ny":28,"refTime":"2024-06-23T21:00:00:Z","depth":"0","parameterNumber":2,"parameterNumberName":"U-component_of_CURRENTS"},"data":[0,0,0,0,0,0,0,0,0,0,0,0,0,0,0,0,0,0,0,0,0,0,0,0,0,0,0,0,0,0,0,0,0,0,0,0,0,0,0,0,0,0,0,0,0,0,0,0,0,0,0,0,0,0,0,0,0,0,-0.4771,-0.477,0,-0.4732,-0.4732,-0.4732,-0.467,-0.4668,-0.4666,-0.4665,-0.4469,-0.4465,-0.4462,0,0,0,0,0,0,0,0,0,0,0,0,0,-0.4693,-0.4696,-0.4771,-0.477,-0.4769,-0.4732,-0.4732,-0.4732,-0.467,-0.4668,-0.4666,-0.4664,-0.447,-0.4466,-0.4461,0,0,0,0,0,0,0,0,0,0,0,0,0,-0.4703,-0.4697,-0.4771,-0.473,-0.4726,-0.4732,-0.4732,-0.4732,-0.467,-0.4668,-0.4666,-0.4663,-0.4472,-0.4466,-0.4461,-0.4473,0,0,-0.4443,-0.4441,0,0,0,0,0,0,0,0,-0.4703,-0.4707,-0.4737,-0.4733,-0.4728,-0.4699,-0.4632,-0.4636,-0.4671,-0.4696,-0.4665,-0.4662,-0.453,-0.452,-0.4526,-0.4463,-0.4455,-0.4443,-0.4439,-0.4437,-0.4435,0,0,0,0,0,0,0,-0.4702,-0.4707,-0.476,-0.4737,-0.4731,-0.468,-0.468,-0.4633,-0.4628,-0.4694,-0.4688,-0.4677,-0.4527,-0.4532,-0.4521,-0.4452,-0.4443,-0.4438,-0.4435,-0.4432,-0.4088,-0.4083,0,0,0,0,0,0,-0.4706,-0.4708,-0.4762,-0.4759,-0.4704,-0.4683,-0.4684,-0.4715,-0.4631,-0.4616,-0.4679,-0.4674,-0.4543,-0.4527,-0.4513,-0.4355,-0.4437,-0.4432,-0.4429,-0.4094,-0.4087,-0.4081,0,0,0,0,0,0,-0.4706,-0.4713,-0.4763,-0.4725,-0.4727,-0.4687,-0.4722,-0.4715,-0.4719,-0.4621,-0.4603,-0.4689,-0.454,-0.4521,-0.4424,-0.4352,-0.4429,-0.4424,-0.4101,-0.4092,-0.4084,-0.4144,0,0,0,0,0,0,-0.4704,-0.4715,-0.4739,-0.4728,-0.473,-0.4762,-0.4724,-0.4716,-0.4713,-0.4707,-0.4624,-0.4604,-0.4537,-0.4433,-0.4418,-0.4346,-0.442,-0.4108,-0.4097,-0.4087,-0.4149,-0.4139,-0.4129,0,0,0,0,0,-0.4703,-0.4731,-0.4742,-0.4747,-0.4767,-0.4762,-0.4759,-0.4723,-0.4716,-0.472,-0.463,-0.4606,-0.435,-0.4427,-0.441,-0.4334,-0.4113,-0.41,-0.4088,-0.4154,-0.4141,-0.413,0,0,0,0,0,0,-0.4703,-0.4728,-0.4738,-0.4774,-0.4771,-0.4749,-0.474,-0.474,-0.4686,-0.4666,-0.4585,-0.4558,-0.4425,-0.4367,-0.4453,-0.4184,-0.4207,-0.4191,-0.4262,-0.4249,-0.424,-0.4262,-0.4415,0,0,0,0,0,-0.4722,-0.4754,-0.4763,-0.4789,-0.4789,-0.4779,-0.4774,-0.476,-0.471,-0.4689,-0.4633,-0.4511,-0.4362,-0.4304,-0.4192,-0.4101,-0.4064,-0.4012,-0.4003,-0.3996,-0.399,-0.3915,-0.3902,-0.4038,-0.4039,-0.4039,0,0,-0.4724,-0.4743,-0.4759,-0.4791,-0.4783,-0.4756,-0.4771,-0.4766,-0.4709,-0.4671,-0.4585,-0.45,-0.4327,-0.4184,-0.4116,-0.4133,-0.3924,-0.3979,-0.3976,-0.3973,-0.3901,-0.3889,-0.3879,-0.403,-0.4031,-0.4033,0,0,-0.4736,-0.4769,-0.4797,-0.4788,-0.4786,-0.4755,-0.476,-0.4756,-0.4718,-0.4647,-0.4546,-0.4442,-0.428,-0.4139,-0.4034,-0.3906,-0.3877,-0.3835,-0.3818,-0.3746,-0.3738,-0.373,-0.3651,-0.3635,-0.3831,-0.3831,-0.3831,0,-0.4728,-0.4761,-0.4796,-0.4799,-0.4741,-0.4752,-0.4707,-0.468,-0.464,-0.4583,-0.4604,-0.4337,-0.4241,-0.4003,-0.3936,-0.3892,-0.3847,-0.3902,-0.3747,-0.3737,-0.3729,-0.3649,-0.3632,-0.3832,-0.3832,-0.3832,-0.3832,0,-0.4755,-0.4753,-0.4753,-0.4739,-0.4698,-0.466,-0.4605,-0.458,-0.4542,-0.4503,-0.4342,-0.4243,-0.4077,-0.4008,-0.3933,-0.3767,-0.3753,-0.3762,-0.3816,-0.3721,-0.3639,-0.362,-0.3834,-0.3834,-0.3833,-0.3833,0,0,-0.4749,-0.4767,-0.4756,-0.4699,-0.464,-0.4591,-0.4497,-0.4388,-0.4316,-0.4293,-0.4185,-0.3975,-0.3988,-0.3866,-0.3784,-0.3728,-0.3634,-0.3723,-0.3719,-0.371,-0.3468,-0.3387,-0.3359,-0.3639,-0.3636,-0.3633,-0.3435,0,-0.472,-0.4706,-0.4698,-0.4573,-0.4512,-0.4447,-0.4346,-0.4258,-0.4195,-0.4123,-0.403,-0.3905,-0.3902,-0.3841,-0.3782,-0.3665,-0.3586,-0.3685,-0.35,-0.3493,-0.349,-0.3335,-0.3226,-0.3034,-0.3417,-0.3413,-0.3411,0,-0.4707,-0.4675,-0.4599,-0.4441,-0.4406,-0.4333,-0.4136,-0.406,-0.3964,-0.3931,-0.3855,-0.382,-0.3687,-0.3741,-0.3544,-0.3613,-0.3527,-0.3474,-0.3465,-0.336,-0.3377,-0.318,-0.2985,-0.298,-0.3382,-0.3384,-0.3386,0,-0.4635,-0.4556,-0.4472,-0.4426,-0.4301,-0.4214,-0.4119,-0.4005,-0.3922,-0.3836,-0.3805,-0.3683,-0.3619,-0.3531,-0.3429,-0.3478,-0.3251,-0.3301,-0.3136,-0.313,-0.2979,-0.2964,-0.2812,-0.315,-0.315,-0.3151,-0.3151,0,-0.4549,-0.4463,-0.4443,-0.4384,-0.4197,-0.4155,-0.3993,-0.3897,-0.3835,-0.3707,-0.372,-0.362,-0.3573,-0.3456,-0.3384,-0.3184,-0.3199,-0.3086,-0.3055,-0.2987,-0.2976,-0.2921,-0.2979,-0.3143,-0.3145,-0.3146,-0.3148,0,-0.444,-0.4475,-0.4322,-0.4209,-0.4167,-0.4016,-0.3895,-0.3804,-0.3784,-0.3635,-0.361,-0.3545,-0.3386,-0.3318,-0.3145,-0.3087,-0.2878,-0.2856,-0.2777,-0.2739,-0.2607,-0.2672,-0.2471,-0.2398,-0.2637,-0.2634,-0.2631,0,-0.437,-0.4329,-0.4178,-0.4079,-0.4011,-0.387,-0.3777,-0.3738,-0.3649,-0.3549,-0.3444,-0.3334,-0.3166,-0.2936,-0.2811,-0.2634,-0.2686,-0.2458,-0.2523,-0.2534,-0.2585,-0.2652,-0.2611,-0.2334,-0.2329,-0.2325,-0.2322,0,-0.4147,-0.4137,-0.3983,-0.3845,-0.3719,-0.3595,-0.3475,-0.3423,-0.3365,-0.3301,-0.3139,-0.3038,-0.2827,-0.2616,-0.2448,-0.2341,-0.2428,-0.2366,-0.2381,-0.2315,-0.2369,-0.2306,-0.2549,-0.2285,-0.2288,-0.2291,-0.2293,-0.2294,-0.3927,-0.3747,-0.3631,-0.3438,-0.336,-0.3261,-0.3102,-0.3079,-0.2952,-0.2771,-0.282,-0.2631,-0.2507,-0.2255,-0.2154,-0.201,-0.2098,-0.1975,-0.2043,-0.2103,-0.2053,-0.2211,-0.1926,-0.1927,-0.1928,-0.193,-0.1931,0,-0.3582,-0.3431,-0.325,-0.3018,-0.2889,-0.2962,-0.2829,-0.2679,-0.2496,-0.2439,-0.2322,-0.2215,-0.2044,-0.1976,-0.1852,-0.1748,-0.1723,-0.1713,-0.1792,-0.1757,-0.1865,-0.1874,-0.1559,-0.1559,-0.1559,-0.1559,-0.1559,-0.1559,-0.3368,-0.3074,-0.2952,-0.2582,-0.2503,-0.2249,-0.2142,-0.2025,-0.1933,-0.1756,-0.1714,-0.1681,-0.1746,-0.1919,-0.1804,-0.1696,-0.1681,-0.1601,-0.1645,-0.177,-0.1802,-0.1832,-0.1852,-0.1537,-0.1537,-0.1462,-0.1462,-0.1462]},{"header":{"parameterUnit":"m.s-1","parameterCategory":2,"la1":30.2991,"la2":30.254,"lo1":-89.0895,"lo2":-89.0444,"dy":0.0017,"dx":0.0017,"nx":28,"ny":28,"refTime":"2024-06-23T21:00:00:Z","depth":"0","parameterNumber":3,"parameterNumberName":"V-component_of_CURRENTS"},"data":[0,0,0,0,0,0,0,0,0,0,0,0,0,0,0,0,0,0,0,0,0,0,0,0,0,0,0,0,0,0,0,0,0,0,0,0,0,0,0,0,0,0,0,0,0,0,0,0,0,0,0,0,0,0,0,0,0,0,-0.156,-0.1556,0,-0.1166,-0.1161,-0.1156,-0.0918,-0.0918,-0.0918,-0.0917,-0.045,-0.0438,-0.0426,0,0,0,0,0,0,0,0,0,0,0,0,0,-0.1866,-0.1862,-0.156,-0.1556,-0.1552,-0.1167,-0.1161,-0.1155,-0.0918,-0.0918,-0.0918,-0.0917,-0.0454,-0.044,-0.0425,0,0,0,0,0,0,0,0,0,0,0,0,0,-0.162,-0.1861,-0.1561,-0.1395,-0.1377,-0.1169,-0.1161,-0.1153,-0.0918,-0.0918,-0.0918,-0.0917,-0.0459,-0.0441,-0.0423,-0.0316,0,0,-0.0367,-0.0359,0,0,0,0,0,0,0,0,-0.1634,-0.1608,-0.1424,-0.1406,-0.1386,-0.11,-0.1097,-0.0873,-0.0918,-0.1082,-0.0917,-0.0917,-0.0668,-0.0632,-0.0545,-0.0294,-0.0274,-0.0365,-0.0354,-0.0346,-0.0341,0,0,0,0,0,0,0,-0.1652,-0.1622,-0.1394,-0.142,-0.1397,-0.1259,-0.1225,-0.1052,-0.0872,-0.1067,-0.1052,-0.1024,-0.0655,-0.0564,-0.0532,-0.0267,-0.0366,-0.0349,-0.0338,-0.0331,0.0177,0.018,0,0,0,0,0,0,-0.1733,-0.1639,-0.1406,-0.1383,-0.1523,-0.1256,-0.1216,-0.1184,-0.0875,-0.0831,-0.1025,-0.1015,-0.0595,-0.0554,-0.0515,-0.0301,-0.0346,-0.0329,-0.0319,0.0175,0.0178,0.018,0,0,0,0,0,0,-0.1741,-0.1716,-0.1422,-0.151,-0.1465,-0.1254,-0.1216,-0.1176,-0.1082,-0.0845,-0.0798,-0.0974,-0.0593,-0.0541,-0.0342,-0.0284,-0.0321,-0.0304,0.0172,0.0176,0.0179,0.0084,0,0,0,0,0,0,-0.1752,-0.1721,-0.1707,-0.1516,-0.1463,-0.1298,-0.1216,-0.1169,-0.1071,-0.1053,-0.0786,-0.0742,-0.0589,-0.0371,-0.0324,-0.0259,-0.029,0.0169,0.0174,0.0178,0.0084,0.0084,0.0084,0,0,0,0,0,-0.1764,-0.1745,-0.1708,-0.1679,-0.1457,-0.1298,-0.1255,-0.1097,-0.107,-0.1014,-0.0836,-0.075,-0.0308,-0.0353,-0.0299,-0.0228,0.0166,0.0172,0.0178,0.0084,0.0084,0.0084,0,0,0,0,0,0,-0.1862,-0.1715,-0.167,-0.1607,-0.1472,-0.1262,-0.1197,-0.1113,-0.0927,-0.0911,-0.0707,-0.0648,-0.0454,-0.0334,-0.039,-0.007,-0.006,-0.0044,-0.015,-0.0148,-0.0148,-0.0165,-0.0275,0,0,0,0,0,-0.189,-0.1842,-0.1679,-0.1631,-0.1572,-0.1397,-0.1313,-0.1212,-0.1038,-0.0956,-0.0773,-0.0576,-0.0386,-0.027,-0.009,0.009,0.0155,0.0168,0.0167,0.0166,0.0191,0.0306,0.0317,0.0199,0.0199,0.0199,0,0,-0.1924,-0.1834,-0.1809,-0.1651,-0.1534,-0.1399,-0.134,-0.1223,-0.1085,-0.0935,-0.0702,-0.0572,-0.0344,-0.0135,-0.0038,-0.0025,0.0229,0.0174,0.0171,0.0197,0.0313,0.0324,0.0334,0.0203,0.0202,0.0201,0,0,-0.1965,-0.1884,-0.1854,-0.1731,-0.1575,-0.1426,-0.1409,-0.1203,-0.1086,-0.0875,-0.0738,-0.0585,-0.0275,-0.0105,0.0022,0.0127,0.0212,0.0177,0.0192,0.0302,0.0312,0.0321,0.0377,0.0393,0.0192,0.0192,0.0192,0,-0.2014,-0.1919,-0.1819,-0.1731,-0.1594,-0.1447,-0.1326,-0.1179,-0.093,-0.0832,-0.0811,-0.0406,-0.0245,0.0015,0.0056,0.013,0.018,0.0165,0.0297,0.0308,0.032,0.0376,0.0394,0.0188,0.0188,0.0189,0.0189,0,-0.2,-0.1904,-0.1867,-0.168,-0.1532,-0.1405,-0.1189,-0.1056,-0.0918,-0.0772,-0.0539,-0.0341,-0.0111,-0.0042,0.006,0.0233,0.0234,0.026,0.0279,0.0325,0.0382,0.0402,0.0182,0.0184,0.0185,0.0186,0,0,-0.2127,-0.1903,-0.188,-0.1754,-0.1474,-0.1339,-0.113,-0.0877,-0.0765,-0.0562,-0.0399,-0.0113,-0.0085,0.0056,0.0164,0.027,0.0367,0.0294,0.0301,0.0317,0.0571,0.0582,0.0605,0.0403,0.0407,0.041,0.0561,0,-0.2118,-0.1958,-0.1811,-0.1571,-0.143,-0.1202,-0.1009,-0.0784,-0.061,-0.0436,-0.0262,-0.0078,-0.002,0.0048,0.0168,0.0329,0.0425,0.0322,0.0556,0.0562,0.0541,0.0632,0.0677,0.0818,0.0581,0.0585,0.0587,0,-0.212,-0.1978,-0.1792,-0.147,-0.139,-0.1231,-0.0894,-0.0711,-0.0468,-0.0363,-0.0199,-0.0084,0.0127,0.0125,0.0419,0.0344,0.0455,0.0556,0.0564,0.0633,0.0615,0.0749,0.0865,0.1049,0.0619,0.0617,0.0615,0,-0.2213,-0.1935,-0.1772,-0.1657,-0.1312,-0.1183,-0.0979,-0.0713,-0.0556,-0.0354,-0.0279,-0.0034,0.0083,0.027,0.0475,0.0451,0.0754,0.0748,0.0864,0.0863,0.0985,0.0988,0.129,0.0944,0.0944,0.0943,0.0943,0,-0.2211,-0.2075,-0.1817,-0.1722,-0.1483,-0.1241,-0.1015,-0.0833,-0.0607,-0.0446,-0.0285,-0.0145,0.0123,0.0324,0.0488,0.0746,0.0771,0.0899,0.093,0.0948,0.0947,0.1178,0.1237,0.0949,0.0948,0.0947,0.0946,0,-0.2312,-0.2182,-0.1961,-0.1637,-0.1539,-0.1364,-0.1021,-0.0879,-0.0707,-0.0512,-0.0455,-0.0186,0.0069,0.0316,0.0634,0.0768,0.1124,0.1073,0.1046,0.1073,0.1335,0.1383,0.1714,0.1847,0.1236,0.1238,0.1239,0,-0.2345,-0.2268,-0.1937,-0.1816,-0.1665,-0.1402,-0.1233,-0.0958,-0.0808,-0.0527,-0.0441,-0.0176,0.005,0.0492,0.0788,0.109,0.1225,0.1278,0.1265,0.1397,0.1476,0.1502,0.1591,0.1371,0.1374,0.1375,0.1377,0,-0.2345,-0.2261,-0.2063,-0.1847,-0.1659,-0.1411,-0.1165,-0.1067,-0.0774,-0.0634,-0.0398,-0.0216,0.0214,0.0615,0.0985,0.1156,0.1427,0.1324,0.1516,0.167,0.1673,0.1797,0.1173,0.1394,0.1392,0.1391,0.139,0.1389,-0.2353,-0.22,-0.2002,-0.1775,-0.1606,-0.1422,-0.1245,-0.1036,-0.0823,-0.0514,-0.0382,-0.0014,0.0471,0.1024,0.1236,0.1654,0.1598,0.1764,0.1825,0.1848,0.1965,0.1343,0.1559,0.1559,0.1558,0.1557,0.1557,0,-0.2281,-0.2119,-0.1929,-0.167,-0.1527,-0.1425,-0.1178,-0.1012,-0.0798,-0.043,-0.0177,0.0432,0.0924,0.1391,0.1917,0.215,0.2225,0.2248,0.2336,0.2416,0.1936,0.193,0.2173,0.2173,0.2172,0.2172,0.2172,0.2172,-0.2231,-0.2021,-0.1882,-0.163,-0.1497,-0.1277,-0.1144,-0.0938,-0.0644,-0.0105,0.0374,0.0744,0.1285,0.2061,0.2576,0.2623,0.2866,0.281,0.2947,0.263,0.259,0.2551,0.2566,0.2938,0.2939,0.3433,0.3438,0.3442]}],[{"header":{"parameterUnit":"m.s-1","parameterCategory":2,"la1":30.2991,"la2":30.254,"lo1":-89.0895,"lo2":-89.0444,"dy":0.0017,"dx":0.0017,"nx":28,"ny":28,"refTime":"2024-06-23T21:00:00:Z","depth":"2","parameterNumber":2,"parameterNumberName":"U-component_of_CURRENTS"},"data":[0,0,0,0,0,0,0,0,0,0,0,0,0,0,0,0,0,0,0,0,0,0,0,0,0,0,0,0,0,0,0,0,0,0,0,0,0,0,0,0,0,0,0,0,0,0,0,0,0,0,0,0,0,0,0,0,0,0,-0.2539,-0.2541,0,-0.2569,-0.2569,-0.2568,-0.2576,-0.2577,-0.2578,-0.2579,-0.2702,-0.2704,-0.2707,0,0,0,0,0,0,0,0,0,0,0,0,0,-0.2387,-0.2389,-0.2539,-0.2541,-0.2542,-0.257,-0.2569,-0.2568,-0.2576,-0.2577,-0.2578,-0.2579,-0.2701,-0.2704,-0.2707,0,0,0,0,0,0,0,0,0,0,0,0,0,-0.2428,-0.239,-0.2539,-0.2558,-0.2561,-0.257,-0.2569,-0.2568,-0.2576,-0.2577,-0.2579,-0.258,-0.27,-0.2704,-0.2708,-0.2703,0,0,-0.2719,-0.272,0,0,0,0,0,0,0,0,-0.2425,-0.2432,-0.2554,-0.2557,-0.256,-0.2581,-0.2561,-0.2622,-0.2576,-0.2558,-0.2579,-0.2581,-0.2677,-0.2683,-0.2667,-0.2709,-0.2714,-0.2719,-0.2721,-0.2723,-0.2724,0,0,0,0,0,0,0,-0.2423,-0.243,-0.2539,-0.2556,-0.256,-0.2531,-0.2538,-0.257,-0.2602,-0.2559,-0.2563,-0.2585,-0.2678,-0.2663,-0.2671,-0.2716,-0.2719,-0.2722,-0.2724,-0.2726,-0.2847,-0.2848,0,0,0,0,0,0,-0.2447,-0.2428,-0.2538,-0.2541,-0.2508,-0.2534,-0.2541,-0.2563,-0.26,-0.2609,-0.2584,-0.2585,-0.2656,-0.2666,-0.2675,-0.2765,-0.2723,-0.2726,-0.2728,-0.2846,-0.2847,-0.2849,0,0,0,0,0,0,-0.2444,-0.2456,-0.2537,-0.2494,-0.2504,-0.2538,-0.2561,-0.2563,-0.2569,-0.2619,-0.2628,-0.2591,-0.2658,-0.267,-0.2752,-0.2767,-0.2728,-0.2731,-0.2845,-0.2847,-0.2848,-0.2886,0,0,0,0,0,0,-0.2439,-0.2455,-0.2488,-0.2496,-0.2508,-0.2591,-0.2561,-0.2563,-0.2585,-0.2587,-0.2628,-0.2639,-0.266,-0.2746,-0.2755,-0.2771,-0.2734,-0.2844,-0.2846,-0.2847,-0.2883,-0.2889,-0.2893,0,0,0,0,0,-0.2433,-0.2477,-0.2489,-0.2504,-0.255,-0.2595,-0.2598,-0.2615,-0.2584,-0.2615,-0.2642,-0.2639,-0.2763,-0.2751,-0.2761,-0.2778,-0.2843,-0.2845,-0.2847,-0.2881,-0.2888,-0.2893,0,0,0,0,0,0,-0.2444,-0.2483,-0.2497,-0.2556,-0.2597,-0.2602,-0.2617,-0.2619,-0.2651,-0.2651,-0.2669,-0.2685,-0.2753,-0.2764,-0.2749,-0.2817,-0.2795,-0.28,-0.2817,-0.2823,-0.2828,-0.2815,-0.2737,0,0,0,0,0,-0.2461,-0.2481,-0.2537,-0.2577,-0.2594,-0.2598,-0.2616,-0.2638,-0.2665,-0.2676,-0.2709,-0.2734,-0.2762,-0.2796,-0.2829,-0.2879,-0.2852,-0.2891,-0.2895,-0.2899,-0.2895,-0.288,-0.2883,-0.2856,-0.2856,-0.2856,0,0,-0.2467,-0.2496,-0.2507,-0.2578,-0.2581,-0.2628,-0.2608,-0.2648,-0.2687,-0.2689,-0.2744,-0.276,-0.2779,-0.2836,-0.2865,-0.2856,-0.289,-0.2902,-0.2906,-0.2899,-0.2883,-0.2885,-0.2887,-0.2858,-0.2857,-0.2857,0,0,-0.2481,-0.2517,-0.2539,-0.2588,-0.2644,-0.2653,-0.2672,-0.2708,-0.2727,-0.28,-0.2787,-0.2822,-0.2884,-0.2893,-0.2901,-0.2951,-0.2913,-0.2955,-0.2977,-0.2964,-0.2965,-0.2966,-0.2919,-0.2915,-0.2961,-0.2961,-0.2961,0,-0.2481,-0.254,-0.2558,-0.2612,-0.2649,-0.2666,-0.2714,-0.2739,-0.2807,-0.2821,-0.284,-0.288,-0.2905,-0.2927,-0.2946,-0.2961,-0.2934,-0.2954,-0.2968,-0.2969,-0.2969,-0.2921,-0.2916,-0.2963,-0.2963,-0.2963,-0.2962,0,-0.2522,-0.2588,-0.2601,-0.2661,-0.2709,-0.2754,-0.2808,-0.2847,-0.2862,-0.2889,-0.2936,-0.2964,-0.2981,-0.299,-0.299,-0.2996,-0.2968,-0.2972,-0.295,-0.2974,-0.2921,-0.2916,-0.2966,-0.2965,-0.2965,-0.2964,0,0,-0.243,-0.2594,-0.2598,-0.2651,-0.2743,-0.2775,-0.2837,-0.289,-0.2903,-0.2976,-0.2989,-0.3035,-0.3026,-0.3032,-0.3024,-0.302,-0.2999,-0.3001,-0.2999,-0.2946,-0.294,-0.2836,-0.282,-0.3005,-0.3005,-0.3005,-0.2895,0,-0.2436,-0.256,-0.2636,-0.2726,-0.278,-0.2839,-0.2886,-0.2945,-0.2979,-0.3008,-0.3022,-0.3045,-0.3047,-0.3047,-0.3045,-0.3013,-0.2989,-0.3026,-0.293,-0.2927,-0.2826,-0.2813,-0.2619,-0.2499,-0.289,-0.2889,-0.2888,0,-0.2434,-0.2517,-0.263,-0.276,-0.2781,-0.2837,-0.2885,-0.2946,-0.2994,-0.302,-0.3043,-0.3055,-0.3056,-0.3054,-0.3009,-0.3031,-0.2984,-0.2957,-0.2953,-0.2838,-0.2814,-0.2542,-0.2474,-0.2879,-0.288,-0.2881,-0.2881,0,-0.2348,-0.2501,-0.2587,-0.264,-0.2786,-0.2818,-0.2872,-0.2936,-0.2961,-0.3014,-0.3026,-0.3045,-0.3036,-0.301,-0.2962,-0.2986,-0.2891,-0.2916,-0.277,-0.2761,-0.2567,-0.2541,-0.2866,-0.2866,-0.2866,-0.2866,-0.2867,0,-0.233,-0.2391,-0.2554,-0.2608,-0.2649,-0.2774,-0.2805,-0.2863,-0.2924,-0.2935,-0.3012,-0.3,-0.3026,-0.2985,-0.2948,-0.2825,-0.2874,-0.2754,-0.2726,-0.2573,-0.255,-0.2866,-0.2868,-0.2862,-0.2863,-0.2864,-0.2865,0,-0.2239,-0.2367,-0.2451,-0.2597,-0.2625,-0.265,-0.2749,-0.2768,-0.2854,-0.2864,-0.288,-0.2945,-0.2897,-0.2886,-0.2825,-0.2776,-0.2693,-0.2632,-0.2434,-0.2385,-0.2575,-0.2581,-0.2466,-0.2462,-0.2458,-0.2455,-0.2452,0,-0.2219,-0.226,-0.2396,-0.2414,-0.2478,-0.2534,-0.256,-0.2689,-0.2715,-0.2807,-0.2794,-0.2796,-0.274,-0.2623,-0.2539,-0.2426,-0.2543,-0.2201,-0.222,-0.255,-0.2534,-0.2546,-0.2556,-0.1968,-0.1962,-0.1957,-0.1952,0,-0.2124,-0.217,-0.2237,-0.2277,-0.2315,-0.2353,-0.2419,-0.2434,-0.257,-0.2584,-0.2587,-0.2561,-0.2475,-0.2285,-0.2173,-0.2093,-0.2216,-0.2089,-0.2465,-0.2112,-0.2075,-0.2062,-0.2089,-0.1905,-0.191,-0.1913,-0.1916,-0.1918,-0.2015,-0.2015,-0.2086,-0.2103,-0.2137,-0.2148,-0.2129,-0.2207,-0.2215,-0.2213,-0.2312,-0.22,-0.2186,-0.1898,-0.1794,-0.1721,-0.1873,-0.1814,-0.1832,-0.1856,-0.183,-0.179,-0.1559,-0.1562,-0.1564,-0.1566,-0.1568,0,-0.1848,-0.1874,-0.1895,-0.192,-0.188,-0.1962,-0.1993,-0.1942,-0.1888,-0.192,-0.1882,-0.1678,-0.1547,-0.1543,-0.1351,-0.1322,-0.1332,-0.1281,-0.1308,-0.1353,-0.1394,-0.1349,-0.0948,-0.0947,-0.0945,-0.0944,0,0,-0.1766,-0.1732,-0.175,-0.1639,-0.1647,-0.1553,-0.1536,-0.149,-0.1474,-0.1375,-0.1319,-0.1412,-0.1461,-0.12,-0.1147,-0.1019,-0.1174,-0.096,-0.145,-0.1522,-0.1562,-0.1683,-0.1661,0,0,0,0,0]},{"header":{"parameterUnit":"m.s-1","parameterCategory":2,"la1":30.2991,"la2":30.254,"lo1":-89.0895,"lo2":-89.0444,"dy":0.0017,"dx":0.0017,"nx":28,"ny":28,"refTime":"2024-06-23T21:00:00:Z","depth":"2","parameterNumber":3,"parameterNumberName":"V-component_of_CURRENTS"},"data":[0,0,0,0,0,0,0,0,0,0,0,0,0,0,0,0,0,0,0,0,0,0,0,0,0,0,0,0,0,0,0,0,0,0,0,0,0,0,0,0,0,0,0,0,0,0,0,0,0,0,0,0,0,0,0,0,0,0,-0.0294,-0.0292,0,-0.0199,-0.0198,-0.0197,-0.0127,-0.0126,-0.0126,-0.0125,0.0021,0.0024,0.0027,0,0,0,0,0,0,0,0,0,0,0,0,0,-0.0369,-0.0368,-0.0294,-0.0292,-0.0291,-0.0199,-0.0198,-0.0196,-0.0127,-0.0126,-0.0126,-0.0125,0.0019,0.0023,0.0027,0,0,0,0,0,0,0,0,0,0,0,0,0,-0.0312,-0.0368,-0.0294,-0.0245,-0.024,-0.0199,-0.0198,-0.0196,-0.0127,-0.0126,-0.0125,-0.0125,0.0018,0.0023,0.0028,0.0038,0,0,0.0043,0.0045,0,0,0,0,0,0,0,0,-0.0315,-0.031,-0.0253,-0.0248,-0.0242,-0.0173,-0.017,-0.0115,-0.0128,-0.0171,-0.0125,-0.0124,-0.004,-0.003,-0.0016,0.0045,0.0051,0.0043,0.0046,0.0048,0.005,0,0,0,0,0,0,0,-0.032,-0.0313,-0.0257,-0.0252,-0.0245,-0.0212,-0.0203,-0.016,-0.0112,-0.0167,-0.0161,-0.015,-0.0036,-0.0021,-0.0012,0.0053,0.0043,0.0047,0.005,0.0052,0.0179,0.0179,0,0,0,0,0,0,-0.0333,-0.0317,-0.026,-0.0254,-0.0276,-0.0212,-0.0202,-0.0197,-0.0113,-0.0099,-0.0151,-0.0147,-0.003,-0.0018,-0.0007,0.0031,0.0048,0.0053,0.0056,0.0178,0.0179,0.0179,0,0,0,0,0,0,-0.0335,-0.033,-0.0264,-0.0282,-0.0271,-0.0212,-0.0206,-0.0196,-0.0178,-0.0101,-0.0087,-0.0144,-0.0029,-0.0013,0.0028,0.0037,0.0055,0.006,0.0178,0.0178,0.0179,0.0094,0,0,0,0,0,0,-0.0338,-0.0331,-0.0336,-0.0284,-0.0271,-0.0252,-0.0207,-0.0194,-0.0172,-0.0166,-0.0091,-0.0076,-0.0027,0.002,0.0033,0.0044,0.0063,0.0177,0.0178,0.0179,0.0096,0.0091,0.0087,0,0,0,0,0,-0.0341,-0.0359,-0.0337,-0.033,-0.0279,-0.0253,-0.0244,-0.0198,-0.0173,-0.0177,-0.0121,-0.0079,0.0035,0.0023,0.0038,0.0051,0.0177,0.0178,0.0179,0.0098,0.0092,0.0087,0,0,0,0,0,0,-0.04,-0.0351,-0.0327,-0.033,-0.0298,-0.0241,-0.0237,-0.0206,-0.0166,-0.0161,-0.0084,-0.0066,-0.0026,0.0023,0.0009,0.0093,0.0118,0.0121,0.0051,0.0047,0.0042,0.0031,0.0067,0,0,0,0,0,-0.0415,-0.0408,-0.036,-0.0361,-0.0348,-0.0294,-0.0278,-0.0252,-0.0207,-0.0189,-0.0132,-0.0067,-0.0011,0.0023,0.0072,0.0111,0.0168,0.0135,0.013,0.0126,0.0129,0.0215,0.0218,0.0182,0.0182,0.0182,0,0,-0.0435,-0.0408,-0.0403,-0.0372,-0.034,-0.0335,-0.0282,-0.0271,-0.0259,-0.0179,-0.0147,-0.009,-0.0007,0.0037,0.0062,0.0081,0.0165,0.0127,0.0123,0.0128,0.0216,0.022,0.0223,0.0183,0.0183,0.0183,0,0,-0.048,-0.0451,-0.0463,-0.0446,-0.0412,-0.0375,-0.0375,-0.0327,-0.0297,-0.0268,-0.0198,-0.0135,-0.0062,0.0011,0.0056,0.006,0.013,0.0077,0.0056,0.0139,0.0142,0.0146,0.0209,0.0219,0.0085,0.0085,0.0085,0,-0.0505,-0.0516,-0.0465,-0.0478,-0.0464,-0.0397,-0.0411,-0.0374,-0.0318,-0.0285,-0.0272,-0.0133,-0.0069,0.0019,0.0022,0.0051,0.0099,0.0063,0.0132,0.0137,0.0143,0.0206,0.0218,0.0081,0.0081,0.0082,0.0082,0,-0.0562,-0.0571,-0.0579,-0.0562,-0.0541,-0.0547,-0.0487,-0.046,-0.0413,-0.0362,-0.0284,-0.0194,-0.0102,-0.0069,-0.0024,0.0056,0.0076,0.0105,0.0138,0.0141,0.0208,0.0222,0.0075,0.0077,0.0078,0.0079,0,0,-0.0603,-0.0617,-0.0618,-0.0627,-0.0589,-0.0577,-0.055,-0.0494,-0.046,-0.0396,-0.034,-0.0232,-0.0171,-0.0114,-0.0036,0.0041,0.0116,0.0081,0.0088,0.0131,0.0284,0.0296,0.0313,0.0151,0.0154,0.0155,0.031,0,-0.0658,-0.072,-0.0691,-0.0719,-0.0739,-0.0666,-0.0637,-0.0577,-0.0506,-0.0438,-0.0321,-0.0246,-0.0189,-0.0142,-0.0058,0.0077,0.0152,0.007,0.0288,0.0294,0.0295,0.033,0.0285,0.042,0.0324,0.0327,0.0329,0,-0.0716,-0.0748,-0.0811,-0.0797,-0.0792,-0.0789,-0.0713,-0.0681,-0.0562,-0.0504,-0.0403,-0.0311,-0.0176,-0.014,0.0088,0.003,0.0145,0.0244,0.0253,0.0306,0.0333,0.0408,0.045,0.0353,0.0351,0.035,0.0348,0,-0.0784,-0.0815,-0.0869,-0.0873,-0.0854,-0.0843,-0.0808,-0.0708,-0.0662,-0.0543,-0.0494,-0.033,-0.0236,-0.0074,0.0127,0.0112,0.0368,0.0379,0.0498,0.0499,0.0528,0.0528,0.0531,0.0531,0.0531,0.053,0.053,0,-0.0856,-0.089,-0.0911,-0.0948,-0.0968,-0.0917,-0.0895,-0.0835,-0.0734,-0.0671,-0.0536,-0.0446,-0.0215,-0.0041,0.0123,0.0359,0.0374,0.0505,0.0549,0.0495,0.049,0.0486,0.0479,0.0536,0.0535,0.0534,0.0533,0,-0.0929,-0.0951,-0.1009,-0.1018,-0.1017,-0.1031,-0.097,-0.0937,-0.0841,-0.0757,-0.0721,-0.0511,-0.0277,-0.005,0.0237,0.0363,0.0578,0.0653,0.0561,0.0591,0.065,0.0637,0.0803,0.0805,0.0807,0.0808,0.0809,0,-0.0975,-0.1028,-0.1078,-0.1104,-0.1114,-0.1116,-0.11,-0.1009,-0.0962,-0.0786,-0.0745,-0.0512,-0.0321,0.0088,0.0357,0.065,0.0648,0.0754,0.0722,0.0656,0.0683,0.0667,0.0652,0.0725,0.0726,0.0726,0.0726,0,-0.1053,-0.1077,-0.1126,-0.1193,-0.1207,-0.1203,-0.1175,-0.1158,-0.1026,-0.0927,-0.0744,-0.0582,-0.0192,0.0138,0.0491,0.0643,0.07,0.0768,0.0763,0.0649,0.0592,0.0614,0.0601,0.0729,0.0729,0.0728,0.0728,0.0728,-0.1093,-0.1148,-0.1211,-0.1259,-0.1276,-0.1269,-0.1256,-0.1195,-0.1108,-0.0925,-0.0763,-0.0476,-0.0182,0.0343,0.0582,0.0789,0.0783,0.0823,0.0819,0.0815,0.0764,0.0712,0.0861,0.0862,0.0862,0.0862,0.0863,0,-0.1122,-0.1187,-0.1255,-0.1308,-0.1317,-0.1309,-0.1274,-0.1216,-0.1111,-0.0922,-0.071,-0.0331,0.0029,0.0334,0.0677,0.0868,0.0841,0.0877,0.0809,0.0805,0.0802,0.0747,0.0842,0.0843,0.0843,0.0844,0,0,-0.1144,-0.1225,-0.1267,-0.1311,-0.1335,-0.1319,-0.1293,-0.1191,-0.1052,-0.0834,-0.0611,-0.0323,0.0044,0.0288,0.0523,0.0697,0.0688,0.0696,0.0686,0.0569,0.0564,0.0741,0.0649,0,0,0,0,0]}],[{"header":{"parameterUnit":"m.s-1","parameterCategory":2,"la1":30.2991,"la2":30.254,"lo1":-89.0895,"lo2":-89.0444,"dy":0.0017,"dx":0.0017,"nx":28,"ny":28,"refTime":"2024-06-23T21:00:00:Z","depth":"4","parameterNumber":2,"parameterNumberName":"U-component_of_CURRENTS"},"data":[0,0,0,0,0,0,0,0,0,0,0,0,0,0,0,0,0,0,0,0,0,0,0,0,0,0,0,0,0,0,0,0,0,0,0,0,0,0,0,0,0,0,0,0,0,0,0,0,0,0,0,0,0,0,0,0,0,0,-0.1613,-0.1614,0,-0.1728,-0.1729,-0.173,-0.1791,-0.1791,-0.1791,-0.1791,-0.1908,-0.1911,-0.1914,0,0,0,0,0,0,0,0,0,0,0,0,0,-0.1478,-0.148,-0.1613,-0.1614,-0.1616,-0.1728,-0.1729,-0.1731,-0.1791,-0.1791,-0.1791,-0.1792,-0.1908,-0.1911,-0.1914,0,0,0,0,0,0,0,0,0,0,0,0,0,-0.1557,-0.148,-0.1612,-0.1661,-0.1666,-0.1727,-0.1729,-0.1731,-0.1791,-0.1791,-0.1791,-0.1792,-0.1906,-0.1911,-0.1915,-0.1934,0,0,-0.1928,-0.193,0,0,0,0,0,0,0,0,-0.1553,-0.1562,-0.1652,-0.1657,-0.1664,-0.1747,-0.1725,-0.1799,-0.179,-0.1741,-0.1791,-0.1792,-0.1855,-0.1864,-0.1882,-0.1939,-0.1944,-0.1928,-0.1931,-0.1933,-0.1934,0,0,0,0,0,0,0,-0.1547,-0.1558,-0.1656,-0.1654,-0.1661,-0.1688,-0.1699,-0.1739,-0.1793,-0.1746,-0.1751,-0.1766,-0.1859,-0.1878,-0.1885,-0.1946,-0.1928,-0.1932,-0.1935,-0.1936,-0.2121,-0.2123,0,0,0,0,0,0,-0.1535,-0.1552,-0.1653,-0.166,-0.161,-0.169,-0.1703,-0.1718,-0.1793,-0.1806,-0.1766,-0.1769,-0.187,-0.188,-0.189,-0.2006,-0.1933,-0.1937,-0.1939,-0.2119,-0.2121,-0.2124,0,0,0,0,0,0,-0.1531,-0.1542,-0.1648,-0.161,-0.1626,-0.1692,-0.1709,-0.172,-0.1772,-0.1809,-0.1821,-0.181,-0.1871,-0.1884,-0.1965,-0.2007,-0.1939,-0.1943,-0.2116,-0.212,-0.2123,-0.2181,0,0,0,0,0,0,-0.1527,-0.154,-0.1564,-0.1609,-0.1627,-0.1714,-0.1709,-0.1722,-0.178,-0.1786,-0.185,-0.1859,-0.1872,-0.1959,-0.197,-0.2012,-0.1946,-0.2113,-0.2118,-0.2122,-0.2176,-0.2186,-0.2194,0,0,0,0,0,-0.1521,-0.1555,-0.1565,-0.1578,-0.1653,-0.1716,-0.1729,-0.1775,-0.1782,-0.182,-0.1865,-0.1859,-0.1994,-0.1965,-0.1977,-0.2021,-0.2111,-0.2116,-0.2121,-0.2172,-0.2184,-0.2194,0,0,0,0,0,0,-0.1519,-0.1566,-0.1577,-0.1626,-0.1679,-0.1728,-0.1768,-0.1794,-0.1858,-0.1868,-0.1894,-0.1908,-0.1993,-0.2003,-0.197,-0.2088,-0.2049,-0.2057,-0.2084,-0.2095,-0.2104,-0.2076,-0.195,0,0,0,0,0,-0.1525,-0.1558,-0.1609,-0.1651,-0.1676,-0.1724,-0.1761,-0.1793,-0.1846,-0.1876,-0.192,-0.1967,-0.2018,-0.2054,-0.2097,-0.2166,-0.2133,-0.2202,-0.2211,-0.2218,-0.2205,-0.2194,-0.22,-0.2141,-0.2141,-0.2141,0,0,-0.1535,-0.1566,-0.1587,-0.1652,-0.169,-0.1744,-0.1748,-0.1814,-0.1867,-0.1878,-0.197,-0.2005,-0.2045,-0.2122,-0.216,-0.214,-0.2221,-0.2225,-0.2231,-0.2213,-0.22,-0.2205,-0.221,-0.2145,-0.2144,-0.2143,0,0,-0.1562,-0.1599,-0.1631,-0.168,-0.1746,-0.178,-0.1805,-0.1874,-0.1915,-0.2004,-0.2021,-0.2078,-0.2169,-0.2196,-0.2221,-0.2306,-0.2269,-0.2333,-0.236,-0.2351,-0.2355,-0.2357,-0.2325,-0.2324,-0.2338,-0.2339,-0.2339,0,-0.1567,-0.1621,-0.1656,-0.1705,-0.1749,-0.1798,-0.1852,-0.1906,-0.1997,-0.2028,-0.2045,-0.2159,-0.2197,-0.2265,-0.2302,-0.2324,-0.2304,-0.2314,-0.2359,-0.2361,-0.2363,-0.2329,-0.2327,-0.2342,-0.2342,-0.2341,-0.2341,0,-0.1612,-0.1671,-0.17,-0.1769,-0.1824,-0.1884,-0.1951,-0.2014,-0.2065,-0.2107,-0.2196,-0.2245,-0.2302,-0.2335,-0.2351,-0.2395,-0.2372,-0.2368,-0.2321,-0.2372,-0.2333,-0.233,-0.2347,-0.2346,-0.2345,-0.2344,0,0,-0.1569,-0.1701,-0.1713,-0.1762,-0.1864,-0.1909,-0.1998,-0.208,-0.2126,-0.2212,-0.2262,-0.2358,-0.2367,-0.2394,-0.2418,-0.242,-0.2427,-0.2408,-0.2405,-0.2356,-0.239,-0.2237,-0.2219,-0.2432,-0.2432,-0.2432,-0.2358,0,-0.159,-0.1685,-0.1751,-0.1854,-0.1908,-0.1986,-0.2062,-0.2142,-0.2205,-0.2267,-0.2312,-0.2375,-0.2396,-0.2425,-0.2435,-0.243,-0.2422,-0.2446,-0.2364,-0.2361,-0.2203,-0.2212,-0.2432,-0.2355,-0.2355,-0.2354,-0.2354,0,-0.1603,-0.1669,-0.1766,-0.1894,-0.1924,-0.1996,-0.21,-0.2175,-0.2264,-0.2312,-0.2366,-0.2395,-0.2435,-0.2435,-0.2431,-0.2447,-0.2422,-0.2406,-0.2402,-0.2229,-0.2201,-0.2297,-0.2348,-0.2348,-0.2349,-0.2349,-0.2349,0,-0.154,-0.1678,-0.1754,-0.1801,-0.1948,-0.2007,-0.2085,-0.2186,-0.2236,-0.2328,-0.2352,-0.2408,-0.2422,-0.2417,-0.24,-0.2419,-0.2358,-0.2376,-0.2208,-0.2197,-0.2331,-0.2328,-0.2348,-0.2348,-0.2348,-0.2348,-0.2348,0,-0.1524,-0.1594,-0.1738,-0.1782,-0.1865,-0.1981,-0.2064,-0.2147,-0.2238,-0.2265,-0.2361,-0.236,-0.2418,-0.2396,-0.2385,-0.2268,-0.2344,-0.219,-0.2161,-0.236,-0.2362,-0.2328,-0.2327,-0.2345,-0.2346,-0.2346,-0.2347,0,-0.1451,-0.1553,-0.1645,-0.1796,-0.1842,-0.19,-0.204,-0.2086,-0.2191,-0.222,-0.2245,-0.2316,-0.2281,-0.2301,-0.2272,-0.2214,-0.2146,-0.2087,-0.2275,-0.2262,-0.1995,-0.1999,-0.1884,-0.1877,-0.1872,-0.1868,-0.1864,0,-0.1421,-0.1465,-0.1615,-0.1657,-0.1733,-0.1834,-0.1895,-0.204,-0.2071,-0.216,-0.2142,-0.2156,-0.2179,-0.2001,-0.2059,-0.1997,-0.1985,-0.1941,-0.1987,-0.1961,-0.1945,-0.1957,-0.1967,-0.1856,-0.1855,-0.1853,-0.1852,0,-0.1352,-0.1417,-0.1483,-0.1558,-0.1634,-0.1704,-0.1797,-0.1802,-0.1932,-0.2037,-0.1973,-0.1947,-0.1893,-0.1873,-0.1829,-0.1799,-0.197,-0.1887,-0.1898,-0.1941,-0.1926,-0.1919,-0.1935,-0.1834,-0.1836,-0.1838,-0.1839,0,-0.1283,-0.1303,-0.1383,-0.1435,-0.1518,-0.1541,-0.1619,-0.1645,-0.1692,-0.1795,-0.1759,-0.1786,-0.1848,-0.1766,-0.1731,-0.1681,-0.167,-0.1636,-0.1661,-0.1682,-0.1654,-0.1609,-0.1369,0,0,0,0,0,-0.1199,-0.121,-0.1251,-0.1302,-0.1375,-0.1417,-0.1529,-0.1607,-0.172,-0.1621,-0.1686,-0.163,-0.1571,-0.1597,-0.1502,-0.1652,-0.1686,-0.1538,-0.1665,-0.1733,-0.1754,-0.1743,0,0,0,0,0,0,-0.1145,-0.1186,-0.1202,-0.1167,-0.117,-0.1235,-0.1301,-0.139,-0.1349,-0.1461,-0.1432,-0.1519,-0.1484,-0.1574,-0.1456,-0.1464,-0.1511,-0.1571,-0.1566,-0.1722,-0.1741,-0.1757,-0.1753,0,0,0,0,0]},{"header":{"parameterUnit":"m.s-1","parameterCategory":2,"la1":30.2991,"la2":30.254,"lo1":-89.0895,"lo2":-89.0444,"dy":0.0017,"dx":0.0017,"nx":28,"ny":28,"refTime":"2024-06-23T21:00:00:Z","depth":"4","parameterNumber":3,"parameterNumberName":"V-component_of_CURRENTS"},"data":[0,0,0,0,0,0,0,0,0,0,0,0,0,0,0,0,0,0,0,0,0,0,0,0,0,0,0,0,0,0,0,0,0,0,0,0,0,0,0,0,0,0,0,0,0,0,0,0,0,0,0,0,0,0,0,0,0,0,-0.0196,-0.0196,0,-0.0142,-0.0141,-0.0141,-0.0098,-0.0098,-0.0097,-0.0097,0.0007,0.001,0.0012,0,0,0,0,0,0,0,0,0,0,0,0,0,-0.0231,-0.0231,-0.0197,-0.0196,-0.0195,-0.0142,-0.0141,-0.0141,-0.0098,-0.0098,-0.0097,-0.0097,0.0006,0.0009,0.0012,0,0,0,0,0,0,0,0,0,0,0,0,0,-0.0201,-0.0231,-0.0197,-0.0167,-0.0164,-0.0142,-0.0141,-0.014,-0.0098,-0.0098,-0.0097,-0.0097,0.0006,0.0009,0.0012,0.0021,0,0,0.0023,0.0025,0,0,0,0,0,0,0,0,-0.0203,-0.02,-0.0172,-0.0169,-0.0166,-0.0126,-0.0115,-0.0084,-0.0099,-0.0124,-0.0097,-0.0096,-0.0033,-0.0026,-0.0019,0.0026,0.0031,0.0024,0.0026,0.0027,0.0028,0,0,0,0,0,0,0,-0.0205,-0.0202,-0.0175,-0.0172,-0.0168,-0.0146,-0.0141,-0.0109,-0.0082,-0.0121,-0.0118,-0.0112,-0.0031,-0.0022,-0.0016,0.0032,0.0024,0.0027,0.0029,0.003,0.0122,0.0123,0,0,0,0,0,0,-0.0214,-0.0204,-0.0177,-0.0173,-0.0183,-0.0146,-0.0141,-0.014,-0.0083,-0.0074,-0.0113,-0.011,-0.0029,-0.002,-0.0012,0.0011,0.0027,0.0031,0.0033,0.0122,0.0122,0.0123,0,0,0,0,0,0,-0.0215,-0.0212,-0.0179,-0.0187,-0.0181,-0.0146,-0.0145,-0.0139,-0.013,-0.0077,-0.0067,-0.011,-0.0028,-0.0017,0.0012,0.0015,0.0032,0.0036,0.0122,0.0122,0.0122,0.005,0,0,0,0,0,0,-0.0216,-0.0213,-0.0217,-0.0188,-0.0181,-0.0176,-0.0146,-0.0138,-0.0127,-0.0123,-0.0072,-0.0061,-0.0026,0.0006,0.0015,0.002,0.0038,0.0121,0.0122,0.0122,0.0052,0.0048,0.0045,0,0,0,0,0,-0.0218,-0.0231,-0.0217,-0.0214,-0.0187,-0.0176,-0.0171,-0.0144,-0.0128,-0.0132,-0.0094,-0.0063,0.0017,0.0008,0.0019,0.0025,0.0121,0.0122,0.0122,0.0054,0.0049,0.0045,0,0,0,0,0,0,-0.0249,-0.0227,-0.0212,-0.0217,-0.02,-0.0169,-0.017,-0.015,-0.0124,-0.0121,-0.0067,-0.0055,-0.0028,0.0009,-0.0001,0.0056,0.0078,0.0081,0.0022,0.0018,0.0014,-0.0002,0.0041,0,0,0,0,0,-0.0258,-0.0261,-0.0235,-0.0239,-0.0234,-0.0202,-0.0194,-0.0179,-0.0151,-0.014,-0.0101,-0.0056,-0.0017,0.0007,0.0041,0.0069,0.0106,0.0084,0.008,0.0077,0.0072,0.0126,0.0126,0.0125,0.0125,0.0125,0,0,-0.0269,-0.0258,-0.0259,-0.0245,-0.0229,-0.0233,-0.0196,-0.0194,-0.0192,-0.0132,-0.0117,-0.0075,-0.0015,0.0013,0.0031,0.0046,0.0097,0.0078,0.0074,0.0071,0.0126,0.0126,0.0126,0.0125,0.0125,0.0125,0,0,-0.0303,-0.0287,-0.0304,-0.0296,-0.0282,-0.0261,-0.0263,-0.0237,-0.022,-0.0204,-0.0155,-0.0112,-0.006,-0.0011,0.002,0.0019,0.0069,0.0035,0.0008,0.006,0.006,0.0061,0.0104,0.0109,0.004,0.004,0.004,0,-0.0319,-0.0334,-0.0307,-0.0323,-0.0319,-0.0277,-0.0295,-0.0274,-0.0241,-0.0224,-0.021,-0.0119,-0.007,-0.0017,-0.0016,0.001,0.0042,0.0016,0.0053,0.0055,0.0057,0.0101,0.0108,0.0037,0.0037,0.0037,0.0038,0,-0.0364,-0.0377,-0.0388,-0.0389,-0.0381,-0.0393,-0.036,-0.0348,-0.032,-0.0289,-0.0244,-0.0177,-0.0118,-0.0091,-0.0054,-0.0009,0.001,0.0033,0.0058,0.0052,0.01,0.0108,0.0032,0.0033,0.0034,0.0035,0,0,-0.04,-0.0418,-0.0422,-0.0435,-0.042,-0.042,-0.0413,-0.039,-0.0379,-0.0335,-0.0311,-0.0234,-0.019,-0.015,-0.0089,-0.0039,0.0004,-0.0003,0.0002,0.0028,0.0111,0.0097,0.0105,0.003,0.0031,0.0032,0.0137,0,-0.0444,-0.0496,-0.0482,-0.0517,-0.0539,-0.0499,-0.0492,-0.0463,-0.0423,-0.039,-0.0309,-0.0265,-0.0213,-0.0182,-0.0125,-0.0027,0.0023,-0.0026,0.0124,0.0128,0.0107,0.0113,0.0036,0.0143,0.0145,0.0146,0.0147,0,-0.0491,-0.0521,-0.0576,-0.0584,-0.0587,-0.0597,-0.0572,-0.0561,-0.0498,-0.0463,-0.0401,-0.0336,-0.0249,-0.021,-0.0054,-0.009,-0.0,0.0074,0.0081,0.0098,0.013,0.0155,0.0163,0.0161,0.016,0.0159,0.0158,0,-0.0538,-0.0577,-0.0625,-0.0633,-0.064,-0.0649,-0.0639,-0.059,-0.0573,-0.0509,-0.0483,-0.0376,-0.0318,-0.0198,-0.0042,-0.0047,0.0126,0.0142,0.0215,0.0216,0.0228,0.0226,0.0246,0.0246,0.0245,0.0245,0.0245,0,-0.0587,-0.0623,-0.0658,-0.0689,-0.0731,-0.0707,-0.0722,-0.0693,-0.0644,-0.0616,-0.0526,-0.0472,-0.0313,-0.0191,-0.0058,0.0102,0.0119,0.0209,0.0242,0.0195,0.0189,0.0234,0.0231,0.0249,0.0248,0.0247,0.0247,0,-0.063,-0.0655,-0.0715,-0.0749,-0.0764,-0.0792,-0.0787,-0.0781,-0.0732,-0.0693,-0.0674,-0.0539,-0.0379,-0.0213,-0.0006,0.008,0.0238,0.0292,0.0226,0.0253,0.0295,0.0287,0.0373,0.0373,0.0373,0.0374,0.0374,0,-0.0655,-0.07,-0.0773,-0.081,-0.0832,-0.0866,-0.0879,-0.0838,-0.0817,-0.072,-0.0695,-0.0549,-0.0442,-0.0156,0.0005,0.0242,0.0276,0.0339,0.0316,0.0284,0.0308,0.03,0.0292,0.0374,0.0374,0.0375,0.0375,0,-0.0704,-0.0738,-0.0786,-0.0872,-0.0911,-0.0938,-0.0947,-0.0936,-0.0865,-0.0831,-0.0685,-0.0533,-0.0357,-0.0149,0.0031,0.0203,0.0284,0.0343,0.0343,0.0322,0.0288,0.0309,0.0301,0.0376,0.0376,0.0375,0.0375,0,-0.0731,-0.0781,-0.085,-0.0913,-0.0967,-0.098,-0.0982,-0.0927,-0.0891,-0.0771,-0.0724,-0.052,-0.0403,-0.0167,0.0005,0.016,0.0194,0.0228,0.0235,0.0235,0.0157,0.0091,0.0146,0,0,0,0,0,-0.0746,-0.0806,-0.0878,-0.0941,-0.0989,-0.101,-0.1007,-0.0986,-0.0927,-0.0825,-0.0764,-0.0585,-0.0319,-0.0202,-0.0046,-0.0013,0.0196,0.0169,0.0232,0.0382,0.0381,0.031,0,0,0,0,0,0,-0.076,-0.084,-0.0881,-0.0941,-0.0981,-0.1017,-0.1011,-0.0971,-0.0895,-0.0819,-0.0667,-0.0576,-0.0313,-0.0407,-0.0052,-0.0006,0.0048,0.0299,0.0301,0.0383,0.0382,0.0381,0.0307,0,0,0,0,0]}]]